Content
SEND FEEDBACK

Daily
Averages
Monthly
Summary
United States of America

BATTENVILLE, NEW YORK


Home > North America > United States > New York
Elevation: 400 feet     Latitude: 43 07N     Longitude: 073 25W

WEATHER
 
SELECT A DAY
Number of Records: 179,102;   Date Range: 12/9/98 - 9/9/14
 
SHARE

PRINT THIS DATA

[ ← Previous Day ]
WEATHER ALMANAC - JULY 20, 2014
[ Next Day → ]
[ °C ]   °F
Weather ElementAverageHighLow
Temperature67.1 °F78.1 °F (2:54 pm)57.9 °F (5:54 am)
Dewpoint56.9 °F61 °F (12:54 pm)55 °F (4:54 pm)
Humidity72.2 %97 % (5:54 am)45 % (4:54 pm)
Barometer30.17 in30.22 in (8:54 am)30.12 in (4:54 pm)
Wind Speed2.1 mph8.1 mph (4:54 pm)
Weather ElementAverage
Visibility9.1 mi
Wind DirectionENE (58.3 °)

Weather ElementTotal
Precipitation0.04 in
Cooling Degree Days3 (Base 65)
Growing Degree Days18 (Base 50)
Averaged from 23 records on July 20, 2014
WEATHER CONDITIONS BREAKOUT
WIND DIRECTION BREAKOUT
WEATHER BY HOUR - JULY 20, 2014
[ °C ]   °F
Local TimeTemperatureDewpointHumidityBarometerVisibilityWind DirectionWind SpeedGust SpeedPrecipitationEventsConditions
1:54 AM59.0 °F57.0 °F93 %30.20 in10.0 miCalmClear
2:54 AM59.0 °F57.0 °F93 %30.18 in10.0 miCalmClear
3:54 AM59.0 °F55.9 °F90 %30.18 in10.0 miCalmClear
4:54 AM59.0 °F55.9 °F90 %30.19 in10.0 miCalmClear
5:54 AM57.9 °F57.0 °F97 %30.19 in9.0 miCalm0.00 inRainLight Rain
6:54 AM59.0 °F57.0 °F93 %30.19 in4.0 miCalm0.03 inRainLight Rain
7:54 AM61.0 °F57.9 °F90 %30.21 in10.0 miCalm0.00 inScattered Clouds
8:54 AM63.0 °F59.0 °F87 %30.22 in10.0 miSE (130°)3.5 mph0.01 inOvercast
9:54 AM66.0 °F57.0 °F73 %30.22 in10.0 miCalmOvercast
10:54 AM66.9 °F59.0 °F76 %30.21 in10.0 miCalmOvercast
12:54 PM73.9 °F61.0 °F64 %30.17 in10.0 miCalmPartly Cloudy
1:54 PM75.0 °F59.0 °F57 %30.16 in10.0 miWest (280°)3.5 mphMostly Cloudy
2:54 PM78.1 °F55.9 °F46 %30.14 in10.0 miSouth (180°)5.8 mphPartly Cloudy
3:54 PM78.1 °F57.0 °F48 %30.13 in10.0 miVariable3.5 mphClear
4:54 PM78.1 °F55.0 °F45 %30.12 in10.0 miSSE (160°)8.1 mphClear
5:54 PM77.0 °F55.0 °F47 %30.12 in10.0 miESE (120°)3.5 mphPartly Cloudy
6:54 PM75.0 °F55.0 °F50 %30.13 in10.0 miSE (140°)5.8 mphScattered Clouds
7:54 PM71.1 °F57.9 °F63 %30.14 in10.0 miCalmClear
8:54 PM69.1 °F55.9 °F63 %30.14 in2.0 miCalmHaze
9:07 PM68.0 °F55.9 °F65 %30.15 in4.0 miSE (130°)3.5 mphHaze
9:54 PM63.0 °F57.0 °F81 %30.16 in10.0 miCalmClear
10:54 PM62.1 °F55.9 °F80 %30.16 in10.0 miEast (90°)3.5 mphClear
11:54 PM64.9 °F55.0 °F70 %30.15 in10.0 miESE (110°)6.9 mphClear
Hourly data recorded from KDDH, located miles away from Battenville, New York







STORIES FROM OUR PARTNERS